Date String (YYYY-MM-DD hh:mm:ss) UTC,Instrument flags,Ambient pressure (hPa),Sample flow (lpm),Bypass flow (lpm),Sample temperature (°C),Ambient temperature (°C),ASC tube jacket temperature (°C),LED temperature (°C),Box temperature (°C),Sample RH (%),Span deviation,Mass concentration (μg/m³),Mass concentration (μg/m³),Mass concentration (μg/m³)
DateTimeUTC,F1_M11,P_M11,Q1_M11,Q2_M11,T1_M11,T2_M11,T3_M11,T4_M11,T5_M11,U1_M11,ZSPAN_M11,X0_M11,X2_M11,X1_M11
2022-12-09 19:00:00,,0821.7,5.00,0.00,24.6,23.4,00.0,33.3,26.5,05.9,0000.0,0006.82,0002.55,0001.89
2022-12-09 19:01:00,,0821.7,5.02,0.00,24.6,23.4,00.0,33.4,26.5,05.9,0000.0,0005.61,0002.63,0001.90
2022-12-09 19:02:00,,0821.6,4.99,0.00,24.6,23.4,00.0,33.4,26.5,05.9,0000.0,0005.70,0002.67,0001.92
2022-12-09 19:03:00,,0821.6,4.98,0.00,24.7,23.4,00.0,33.4,26.5,05.9,0000.0,0006.26,0002.72,0001.93
2022-12-09 19:04:00,,0821.5,5.01,0.00,24.7,23.5,00.0,33.4,26.6,06.0,0000.0,0007.78,0002.77,0001.94
2022-12-09 19:05:00,,0821.5,5.01,0.00,24.7,23.5,00.0,33.4,26.6,05.9,0000.0,0008.12,0002.86,0001.95
2022-12-09 19:06:00,,0821.5,4.98,0.00,24.7,23.5,00.0,33.4,26.6,05.9,0000.0,0008.00,0002.87,0001.95
2022-12-09 19:07:00,,0821.5,4.99,0.00,24.7,23.5,00.0,33.4,26.6,06.0,0000.0,0008.60,0002.91,0001.94
2022-12-09 19:08:00,,0821.5,5.02,0.00,24.7,23.5,00.0,33.4,26.6,06.1,0000.0,0008.74,0002.94,0001.94
2022-12-09 19:09:00,,0821.5,5.00,0.00,24.7,23.5,00.0,33.4,26.7,05.9,0000.0,0008.64,0002.90,0001.94
2022-12-09 19:10:00,,0821.4,4.98,0.00,24.7,23.5,00.0,33.5,26.6,05.9,0000.0,0008.44,0002.79,0001.92
2022-12-09 19:11:00,,0821.4,5.00,0.00,24.7,23.4,00.0,33.5,26.6,05.8,0000.0,0008.25,0002.74,0001.93
2022-12-09 19:12:00,,0821.4,5.03,0.00,24.7,23.3,00.0,33.5,26.6,05.8,0000.0,0008.21,0002.71,0001.91
2022-12-09 19:13:00,,0821.4,4.98,0.00,24.7,23.3,00.0,33.5,26.6,06.2,0000.0,0008.21,0002.70,0001.91
2022-12-09 19:14:00,,0821.4,4.98,0.00,24.7,23.3,00.0,33.5,26.6,06.3,0000.0,0008.03,0002.72,0001.93
2022-12-09 19:15:00,,0821.4,5.01,0.00,24.7,23.4,00.0,33.5,26.6,06.4,0000.0,0006.79,0002.73,0001.95
2022-12-09 19:16:00,,0821.3,5.01,0.00,24.7,23.4,00.0,33.5,26.6,06.4,0000.0,0005.78,0002.70,0002.00
2022-12-09 19:17:00,,0821.4,4.98,0.00,24.7,23.3,00.0,33.5,26.6,06.1,0000.0,0005.95,0002.72,0002.01
2022-12-09 19:18:00,,0821.3,4.99,0.00,24.7,23.3,00.0,33.5,26.6,06.2,0000.0,0005.08,0002.74,0002.04
2022-12-09 19:19:00,,0821.3,5.02,0.00,24.7,23.3,00.0,33.5,26.6,06.1,0000.0,0004.88,0002.71,0002.04
2022-12-09 19:20:00,,0821.2,4.99,0.00,24.7,23.4,00.0,33.5,26.5,06.2,0000.0,0005.07,0002.74,0002.05
2022-12-09 19:21:00,,0821.3,4.98,0.00,24.7,23.4,00.0,33.5,26.6,06.3,0000.0,0005.25,0002.81,0002.06
2022-12-09 19:22:00,,0821.3,5.00,0.00,24.7,23.4,00.0,33.5,26.6,06.1,0000.0,0005.29,0002.86,0002.09
2022-12-09 19:23:00,,0821.2,5.02,0.00,24.7,23.4,00.0,33.5,26.6,06.3,0000.0,0005.25,0002.86,0002.11
2022-12-09 19:24:00,,0821.2,5.00,0.00,24.7,23.4,00.0,33.5,26.6,06.5,0000.0,0005.20,0002.84,0002.13
2022-12-09 19:25:00,,0821.2,4.98,0.00,24.7,23.4,00.0,33.5,26.6,06.4,0000.0,0005.04,0002.80,0002.15
2022-12-09 19:26:00,,0821.2,5.01,0.00,24.7,23.4,00.0,33.5,26.6,06.3,0000.0,0005.35,0002.77,0002.14
2022-12-09 19:27:00,,0821.1,5.00,0.00,24.7,23.3,00.0,33.5,26.6,06.2,0000.0,0007.41,0002.79,0002.11
2022-12-09 19:28:00,,0821.1,4.98,0.00,24.7,23.2,00.0,33.5,26.6,06.1,0000.0,0007.51,0002.79,0002.12
2022-12-09 19:29:00,,0821.1,4.99,0.00,24.7,23.1,00.0,33.5,26.6,06.1,0000.0,0007.51,0002.79,0002.11
2022-12-09 19:30:00,,0821.1,5.03,0.00,24.6,23.1,00.0,33.5,26.5,06.1,0000.0,0007.49,0002.79,0002.11
2022-12-09 19:31:00,,0821.1,4.98,0.00,24.6,23.2,00.0,33.5,26.5,06.0,0000.0,0007.45,0002.76,0002.10
2022-12-09 19:32:00,,0821.0,4.99,0.00,24.6,23.2,00.0,33.5,26.5,05.9,0000.0,0007.43,0002.70,0002.08
2022-12-09 19:33:00,,0821.0,5.03,0.00,24.6,23.3,00.0,33.5,26.6,05.8,0000.0,0007.36,0002.60,0002.03
2022-12-09 19:34:00,,0821.0,4.99,0.00,24.7,23.3,00.0,33.5,26.6,05.7,0000.0,0007.32,0002.54,0001.97
2022-12-09 19:35:00,,0821.1,4.98,0.00,24.7,23.3,00.0,33.5,26.6,05.9,0000.0,0007.60,0002.55,0001.92
2022-12-09 19:36:00,,0821.0,5.01,0.00,24.7,23.4,00.0,33.5,26.6,05.9,0000.0,0008.13,0002.56,0001.88
2022-12-09 19:37:00,,0821.0,5.02,0.00,24.7,23.4,00.0,33.5,26.6,05.8,0000.0,0008.54,0002.52,0001.84
2022-12-09 19:38:00,,0820.9,4.98,0.00,24.7,23.4,00.0,33.5,26.6,05.8,0000.0,0007.21,0002.41,0001.79
2022-12-09 19:39:00,,0821.0,4.99,0.00,24.7,23.4,00.0,33.5,26.6,05.7,0000.0,0007.05,0002.32,0001.74
2022-12-09 19:40:00,,0821.0,5.01,0.00,24.7,23.4,00.0,33.5,26.6,05.8,0000.0,0007.65,0002.26,0001.70
2022-12-09 19:41:00,,0821.0,5.01,0.00,24.7,23.4,00.0,33.5,26.6,05.9,0000.0,0007.72,0002.22,0001.66
2022-12-09 19:42:00,,0821.0,4.99,0.00,24.7,23.4,00.0,33.5,26.6,05.9,0000.0,0007.63,0002.17,0001.63
2022-12-09 19:43:00,,0821.0,4.98,0.00,24.7,23.5,00.0,33.5,26.6,05.8,0000.0,0007.61,0002.17,0001.62
2022-12-09 19:44:00,,0820.9,5.01,0.00,24.7,23.5,00.0,33.5,26.7,05.8,0000.0,0007.64,0002.20,0001.63
2022-12-09 19:45:00,,0820.9,5.01,0.00,24.7,23.5,00.0,33.5,26.7,05.7,0000.0,0007.70,0002.24,0001.64
2022-12-09 19:46:00,,0820.9,4.98,0.00,24.8,23.5,00.0,33.5,26.7,05.7,0000.0,0007.43,0002.19,0001.63
2022-12-09 19:47:00,,0821.0,4.99,0.00,24.8,23.5,00.0,33.5,26.7,05.7,0000.0,0007.05,0002.11,0001.60
2022-12-09 19:48:00,,0820.9,5.02,0.00,24.8,23.6,00.0,33.5,26.7,05.7,0000.0,0007.35,0002.09,0001.58
2022-12-09 19:49:00,,0820.9,4.99,0.00,24.8,23.6,00.0,33.5,26.7,06.0,0000.0,0007.79,0002.10,0001.55
2022-12-09 19:50:00,,0820.9,4.99,0.00,24.8,23.6,00.0,33.5,26.6,06.1,0000.0,0007.67,0002.08,0001.50
2022-12-09 19:51:00,,0820.9,5.00,0.00,24.8,23.5,00.0,33.6,26.6,06.2,0000.0,0006.77,0001.99,0001.43
2022-12-09 19:52:00,,0820.7,5.02,0.00,24.8,23.5,00.0,33.6,26.6,06.3,0000.0,0006.36,0001.88,0001.36
2022-12-09 19:53:00,,0820.6,4.99,0.00,24.8,23.5,00.0,33.6,26.6,06.2,0000.0,0006.17,0001.78,0001.28
2022-12-09 19:54:00,,0820.7,4.99,0.00,24.8,23.5,00.0,33.6,26.6,06.2,0000.0,0005.96,0001.67,0001.20
2022-12-09 19:55:00,,0820.9,5.02,0.00,24.8,23.5,00.0,33.6,26.7,06.2,0000.0,0006.04,0001.66,0001.17
2022-12-09 19:56:00,,0820.9,5.01,0.00,24.8,23.5,00.0,33.6,26.7,06.1,0000.0,0005.91,0001.63,0001.16
2022-12-09 19:57:00,,0820.8,4.99,0.00,24.8,23.5,00.0,33.6,26.7,05.9,0000.0,0006.19,0001.67,0001.16
2022-12-09 19:58:00,,0820.8,4.99,0.00,24.8,23.5,00.0,33.6,26.7,06.1,0000.0,0006.01,0001.70,0001.17
2022-12-09 19:59:00,,0820.7,5.00,0.00,24.8,23.4,00.0,33.6,26.6,06.2,0000.0,0005.25,0001.64,0001.13
